Погода в Мулянке

Россия / Пермский край     57°48′22″N   56°22′32″E
темп.,
°C
ветер,
м/с
пор.,
м/с
влажн.,
%
обл.,
%
осадки,
мм/ч
давл.,
гПа
погр.,
м
21 января, пт
пт2123:00−8ююз41291100 0.1 1017546
02:00−8ююз4139095 0.0 1017535
05:00−9ююз4139090 0.0 1018525
08:00−10ююз4129168 0.0 1018450
11:00−10ююз4129163 0.0 1020452
14:00−8ююз4119093 0.0 1021473
17:00−10ююз379396 0.0 1022202
20:00−16ююв229975 0.0 102425
22 января, сб
сб2223:00−18ююв2110070 0.0 102527
02:00−18ююв219999 0.0 102618
05:00−20юв2110077 0.0 102718
08:00−20юв21100100 0.0 102831
11:00−17ююв23100100 0.1 102864
14:00−10ююв249390 0.0 1028188
17:00−13вюв119868 0.0 10299
20:00−17юв2110099 0.0 103112
23 января, вс
вс2323:00−14юв1210099 0.0 103140
02:00−16юв21100100 0.0 103323
05:00−17юв219990 0.0 103415
08:00−18юв2199100 0.0 103517
11:00−13ююв2393100 0.0 103671
14:00−9юв2486100 0.0 1036146
17:00−10юв1196100 0.0 103811
20:00−11юв2196100 0.0 103822
24 января, пн
пн2423:00−11ююв1196100 0.0 103915
02:00−11ююв1197100 0.0 104012
05:00−9ю1193100 0.0 104031
08:00−9ююв1197100 0.0 104015
11:00−8ю1290100 0.0 104078
14:00−6зюз1380100 0.0 1039240
17:00−8ююз1194100 0.0 103920
20:00−9юз1592100 0.0 1038134
25 января, вт
вт2523:00−8юз2691100 0.1 1037232
02:00−9зюз279486 0.1 1036226
05:00−13юз239879 0.2 103640
08:00−15юз1198100 0.0 103618
11:00−12зюз1291100 0.0 103667
14:00−9зюз1383100 0.0 1035192
17:00−11ююз1196100 0.0 103510
20:00−16юз119788 0.0 103510